Preview of NWS' New Version of Forecast
This preview is not operational and should not be used for support decisions.

Regional Weather Roundup (RWR)

Issued by National Weather Service (NWS)

                            
000
ASUS45 KBOU 171910
RWRCO 

WEATHER ROUNDUP FOR COLORADO
NATIONAL WEATHER SERVICE DENVER/BOULDER CO
100 PM MDT WED JUL 17 2019

NOTE: "FAIR" INDICATES FEW OR NO CLOUDS BELOW 12000 FEET WITH NO
SIGNIFICANT WEATHER AND/OR OBSTRUCTIONS TO VISIBILITY.

COZ001>005-013-030-031-172000-
...NORTHWEST COLORADO...
  
CITY           SKY/WX    TMP DP  RH WIND       PRES   REMARKS
CRAIG          FAIR      87  35  15 W9G20     30.09F                  
HAYDEN         FAIR      83  38  20 SW13G28   30.14F                  
MEEKER         FAIR      86  33  15 SW17G29   30.12F                  
RANGELY        FAIR      94  26   9 SW21G29   30.02F                  
RABBIT EARS PA NOT AVBL                                               
STEAMBOAT SPGS FAIR      81  39  22 SW8       30.17F                  
WALDEN         NOT AVBL                                               
$$

COZ006>008-011-172000-
...WEST CENTRAL VALLEYS...
  
CITY           SKY/WX    TMP DP  RH WIND       PRES   REMARKS
GRAND JUNCTION FAIR      93  40  15 VRB3      30.02F                  
MONTROSE       FAIR      89  40  17 W12G20    30.14F                  
EAGLE          FAIR      82  45  26 SW13G24   30.17F                  
RIFLE          FAIR      90  41  18 W17G28    30.07F                  
DELTA          FAIR      96  33  11 W17       30.07F                  
NUCLA          FAIR      90  32  12 S14G24    30.18F                  
$$

COZ017>023-064>068-172000-
...SOUTHWEST COLORADO...
  
CITY           SKY/WX    TMP DP  RH WIND       PRES   REMARKS
DURANGO        FAIR      86  41  20 W15G23    30.24F                  
CORTEZ         FAIR      89  41  18 SW17G25   30.19S                  
PAGOSA SPRINGS FAIR      80  43  27 SW8G20    30.33S                  
TELLURIDE      PTSUNNY   72  32  23 W14G22    30.44S                  
WOLF CREEK PAS NOT AVBL                                               
$$

COZ009-010-012-014-032>034-037-058>063-172000-
...CENTRAL COLORADO...
  
CITY           SKY/WX    TMP DP  RH WIND       PRES   REMARKS
ASPEN          PTSUNNY   79  37  22 N6        30.26F                  
BUENA VISTA    FAIR      85  27  12 W17G28    30.26S                  
COPPER MTN     FAIR      64  32  29 W16G28    30.62S                  
BERTHOUD PASS  FAIR      55  43  62 NW36G47   30.63F                  
COTTONWOOD PAS NOT AVBL                                               
GUNNISON       FAIR      81  42  25 W20       30.27F                  
GRANBY         NOT AVBL                                               
KREMMLING      FAIR      86  41  20 SW16G33   30.22F                  
LEADVILLE      FAIR      73  32  22 W15G25    30.42S                  
SALIDA         FAIR      88  29  12 W20       30.30S                  
SUNLIGHT       FAIR      68  37  32 SW10G21   30.54S                  
WILKERSON PASS PTSUNNY   68  27  21 W9        30.57S                  
$$

COZ069>075-172000-
...SAN LUIS VALLEY/SANGRE DE CRISTO MOUNTAINS...
  
CITY           SKY/WX    TMP DP  RH WIND       PRES   REMARKS
ALAMOSA        FAIR      79  45  29 VRB6      30.26F                  
DEL NORTE      FAIR      80  48  32 SE14      30.28F                  
LA VETA PASS   NOT AVBL                                               
SAGUACHE       FAIR      77  46  33 CALM      30.28F                  
$$

COZ035-036-038>040-172000-
...NORTHERN COLORADO FRONT RANGE...
  
CITY           SKY/WX    TMP DP  RH WIND       PRES   REMARKS
DENVER INTL AP PTSUNNY   93  46  19 NE10      30.01S                  
AURORA         FAIR      93  40  15 NE8       30.02F                  
FRONT RANGE AP PTSUNNY   90  48  24 NE13G18   30.02S                  
ERIE MUNI ARPT FAIR      92  32  12 N5        30.01F                  
BOULDER MUN AP FAIR      95  37  13 W17G24    29.98F                  
CENTENNIAL     PTSUNNY   92  38  15 E6        30.03F                  
BROOMFIELD     MOSUNNY   91  37  15 W9G17     30.02S                  
FORT COLLINS   FAIR      95  55  26 E14G20    29.96F                  
LONGMONT       FAIR      98  36  11 W12G23    29.97S                  
$$

COZ041-046-047-076>085-087-088-172000-
...PIKES PEAK/PALMER DIVIDE AND SOUTHERN FOOTHILLS...
  
CITY           SKY/WX    TMP DP  RH WIND       PRES   REMARKS
COLO. SPRINGS  PTSUNNY   90  38  16 CALM      30.08F                  
A. F. ACADEMY  CLOUDY    87  33  15 W9        30.08F                  
SCHRIEVER AFB  NOT AVBL                                               
CHEYENNE MTN   NOT AVBL                                               
ELLICOTT         N/A    N/A N/A N/A SW6       30.06F                  
FALCON         FAIR      93  31  11 W12G17    30.16S                  
FORT CARSON    PTSUNNY   91  40  16 E8        30.04F                  
LIMON          FAIR      92  50  23 NE18G28   30.00S                  
MONUMENT HILL  FAIR      81  41  24 CALM      30.17F                  
CANON CITY     NOT AVBL                                               
WALSENBURG     NOT AVBL                                               
TRINIDAD       FAIR      93  42  17 VRB3      30.05F                  
$$

COZ042>045-048>051-090-091-172000-
...NORTHEAST COLORADO...
  
CITY           SKY/WX    TMP DP  RH WIND       PRES   REMARKS
GREELEY ARPT   FAIR      91  57  31 E10       29.95F                  
AKRON          FAIR      81  60  48 NE10      29.98S                  
BURLINGTON     FAIR      96  51  21 CALM      29.91F                  
WRAY           FAIR      90  54  29 CALM      29.90S                  
YUMA           FAIR      86  18   8 N9        29.93F                  
STERLING       FAIR      82  63  51 E9        29.93S                  
HOLYOKE        FAIR      95  61  31 E3        29.90S                  
FORT MORGAN    NOT AVBL                                               
$$

COZ086-089-092>099-172000-
...SOUTHEAST COLORADO...
  
CITY           SKY/WX    TMP DP  RH WIND       PRES   REMARKS
PUEBLO         FAIR      99  42  14 NW15G23   29.93F                  
LA JUNTA       FAIR      98  45  16 SW8       29.91F                  
LAMAR          FAIR      98  47  17 SW7       29.86F                  
SPRINGFIELD    NOT AVBL                                               
$$